Year,Month,Day,Hour,Minute,Value (Times are PST for temperature in C)
2011,08,09,00,00,13.30
2011,08,09,00,01,13.30
2011,08,09,00,02,13.30
2011,08,09,00,03,13.30
2011,08,09,00,04,13.30
2011,08,09,00,05,13.30
2011,08,09,00,06,13.20
2011,08,09,00,07,13.20
2011,08,09,00,08,13.20
2011,08,09,00,09,13.20
2011,08,09,00,10,13.20
2011,08,09,00,11,13.10
2011,08,09,00,12,13.10
2011,08,09,00,13,13.10
2011,08,09,00,14,13.10
2011,08,09,00,15,13.10
2011,08,09,00,16,13.10
2011,08,09,00,17,13.10
2011,08,09,00,18,13.10
2011,08,09,00,19,13.10
2011,08,09,00,20,13.10
2011,08,09,00,21,13.10
2011,08,09,00,22,13.00
2011,08,09,00,23,13.00
2011,08,09,00,24,13.00
2011,08,09,00,25,12.90
2011,08,09,00,26,12.90
2011,08,09,00,27,12.90
2011,08,09,00,28,12.90
2011,08,09,00,29,12.90
2011,08,09,00,30,12.80
2011,08,09,00,31,12.80
2011,08,09,00,32,12.80
2011,08,09,00,33,12.80
2011,08,09,00,34,12.80
2011,08,09,00,35,12.80
2011,08,09,00,36,12.80
2011,08,09,00,37,12.70
2011,08,09,00,38,12.70
2011,08,09,00,39,12.70
2011,08,09,00,40,12.70
2011,08,09,00,41,12.70
2011,08,09,00,42,12.70
2011,08,09,00,43,12.70
2011,08,09,00,44,12.80
2011,08,09,00,45,12.80
2011,08,09,00,46,12.80
2011,08,09,00,47,12.80
2011,08,09,00,48,12.80
2011,08,09,00,49,12.80
2011,08,09,00,50,12.80
2011,08,09,00,51,12.80
2011,08,09,00,52,12.80
2011,08,09,00,53,12.80
2011,08,09,00,54,12.80
2011,08,09,00,55,12.80
2011,08,09,00,56,12.80
2011,08,09,00,57,12.80
2011,08,09,00,58,12.70
2011,08,09,00,59,12.70
2011,08,09,01,00,12.70
2011,08,09,01,01,12.70
2011,08,09,01,02,12.70
2011,08,09,01,03,12.70
2011,08,09,01,04,12.70
2011,08,09,01,05,12.60
2011,08,09,01,06,12.60
2011,08,09,01,07,12.60
2011,08,09,01,08,12.60
2011,08,09,01,09,12.60
2011,08,09,01,10,12.60
2011,08,09,01,11,12.50
2011,08,09,01,12,12.50
2011,08,09,01,13,12.50
2011,08,09,01,14,12.50
2011,08,09,01,15,12.40
2011,08,09,01,16,12.40
2011,08,09,01,17,12.40
2011,08,09,01,18,12.40
2011,08,09,01,19,12.40
2011,08,09,01,20,12.40
2011,08,09,01,21,12.40
2011,08,09,01,22,12.40
2011,08,09,01,23,12.30
2011,08,09,01,24,12.30
2011,08,09,01,25,12.30
2011,08,09,01,26,12.30
2011,08,09,01,27,12.30
2011,08,09,01,28,12.30
2011,08,09,01,29,12.30
2011,08,09,01,30,12.30
2011,08,09,01,31,12.30
2011,08,09,01,32,12.30
2011,08,09,01,33,12.30
2011,08,09,01,34,12.30
2011,08,09,01,35,12.30
2011,08,09,01,36,12.30
2011,08,09,01,37,12.30
2011,08,09,01,38,12.30
2011,08,09,01,39,12.30
2011,08,09,01,40,12.30
2011,08,09,01,41,12.30
2011,08,09,01,42,12.30
2011,08,09,01,43,12.30
2011,08,09,01,44,12.30
2011,08,09,01,45,12.30
2011,08,09,01,46,12.30
2011,08,09,01,47,12.30
2011,08,09,01,48,12.30
2011,08,09,01,49,12.30
2011,08,09,01,50,12.30
2011,08,09,01,51,12.30
2011,08,09,01,52,12.30
2011,08,09,01,53,12.30
2011,08,09,01,54,12.30
2011,08,09,01,55,12.20
2011,08,09,01,56,12.30
2011,08,09,01,57,12.20
2011,08,09,01,58,12.20
2011,08,09,01,59,12.20
2011,08,09,02,00,12.20
2011,08,09,02,01,12.20
2011,08,09,02,02,12.20
2011,08,09,02,03,12.20
2011,08,09,02,04,12.20
2011,08,09,02,05,12.20
2011,08,09,02,06,12.20
2011,08,09,02,07,12.20
2011,08,09,02,08,12.20
2011,08,09,02,09,12.20
2011,08,09,02,10,12.20
2011,08,09,02,11,12.20
2011,08,09,02,12,12.20
2011,08,09,02,13,12.20
2011,08,09,02,14,12.20
2011,08,09,02,15,12.20
2011,08,09,02,16,12.20
2011,08,09,02,17,12.20
2011,08,09,02,18,12.20
2011,08,09,02,19,12.20
2011,08,09,02,20,12.20
2011,08,09,02,21,12.20
2011,08,09,02,22,12.30
2011,08,09,02,23,12.20
2011,08,09,02,24,12.30
2011,08,09,02,25,12.20
2011,08,09,02,26,12.20
2011,08,09,02,27,12.20
2011,08,09,02,28,12.20
2011,08,09,02,29,12.30
2011,08,09,02,30,12.30
2011,08,09,02,31,12.30
2011,08,09,02,32,12.30
2011,08,09,02,33,12.30
2011,08,09,02,34,12.30
2011,08,09,02,35,12.30
2011,08,09,02,36,12.30
2011,08,09,02,37,12.30
2011,08,09,02,38,12.30
2011,08,09,02,39,12.30
2011,08,09,02,40,12.30
2011,08,09,02,41,12.30
2011,08,09,02,42,12.30
2011,08,09,02,43,12.30
2011,08,09,02,44,12.30
2011,08,09,02,45,12.30
2011,08,09,02,46,12.30
2011,08,09,02,47,12.30
2011,08,09,02,48,12.30
2011,08,09,02,49,12.40
2011,08,09,02,50,12.40
2011,08,09,02,51,12.40
2011,08,09,02,52,12.40
2011,08,09,02,53,12.40
2011,08,09,02,54,12.40
2011,08,09,02,55,12.40
2011,08,09,02,56,12.40
2011,08,09,02,57,12.40
2011,08,09,02,58,12.50
2011,08,09,02,59,12.50
2011,08,09,03,00,12.50
2011,08,09,03,01,12.50
2011,08,09,03,02,12.60
2011,08,09,03,03,12.60
2011,08,09,03,04,12.60
2011,08,09,03,05,12.60
2011,08,09,03,06,12.70
2011,08,09,03,07,12.70
2011,08,09,03,08,12.70
2011,08,09,03,09,12.70
2011,08,09,03,10,12.70
2011,08,09,03,11,12.80
2011,08,09,03,12,12.80
2011,08,09,03,13,12.80
2011,08,09,03,14,12.80
2011,08,09,03,15,12.80
2011,08,09,03,16,12.80
2011,08,09,03,17,12.80
2011,08,09,03,18,12.90
2011,08,09,03,19,12.90
2011,08,09,03,20,12.90
2011,08,09,03,21,12.90
2011,08,09,03,22,12.90
2011,08,09,03,23,12.90
2011,08,09,03,24,13.00
2011,08,09,03,25,13.00
2011,08,09,03,26,13.00
2011,08,09,03,27,13.00
2011,08,09,03,28,13.10
2011,08,09,03,29,13.10
2011,08,09,03,30,13.10
2011,08,09,03,31,13.10
2011,08,09,03,32,13.10
2011,08,09,03,33,13.10
2011,08,09,03,34,13.10
2011,08,09,03,35,13.20
2011,08,09,03,36,13.20
2011,08,09,03,37,13.20
2011,08,09,03,38,13.20
2011,08,09,03,39,13.20
2011,08,09,03,40,13.20
2011,08,09,03,41,13.20
2011,08,09,03,42,13.20
2011,08,09,03,43,13.30
2011,08,09,03,44,13.30
2011,08,09,03,45,13.30
2011,08,09,03,46,13.30
2011,08,09,03,47,13.30
2011,08,09,03,48,13.30
2011,08,09,03,49,13.30
2011,08,09,03,50,13.30
2011,08,09,03,51,13.30
2011,08,09,03,52,13.30
2011,08,09,03,53,13.30
2011,08,09,03,54,13.40
2011,08,09,03,55,13.40
2011,08,09,03,56,13.40
2011,08,09,03,57,13.40
2011,08,09,03,58,13.40
2011,08,09,03,59,13.40
2011,08,09,04,00,13.40
2011,08,09,04,01,13.40
2011,08,09,04,02,13.40
2011,08,09,04,03,13.40
2011,08,09,04,04,13.40
2011,08,09,04,05,13.40
2011,08,09,04,06,13.40
2011,08,09,04,07,13.40
2011,08,09,04,08,13.50
2011,08,09,04,09,13.50
2011,08,09,04,10,13.50
2011,08,09,04,11,13.50
2011,08,09,04,12,13.50
2011,08,09,04,13,13.50
2011,08,09,04,14,13.50
2011,08,09,04,15,13.50
2011,08,09,04,16,13.50
2011,08,09,04,17,13.50
2011,08,09,04,18,13.50
2011,08,09,04,19,13.50
2011,08,09,04,20,13.50
2011,08,09,04,21,13.60
2011,08,09,04,22,13.60
2011,08,09,04,23,13.50
2011,08,09,04,24,13.60
2011,08,09,04,25,13.60
2011,08,09,04,26,13.60
2011,08,09,04,27,13.60
2011,08,09,04,28,13.60
2011,08,09,04,29,13.60
2011,08,09,04,30,13.60
2011,08,09,04,31,13.60
2011,08,09,04,32,13.60
2011,08,09,04,33,13.60
2011,08,09,04,34,13.60
2011,08,09,04,35,13.60
2011,08,09,04,36,13.60
2011,08,09,04,37,13.60
2011,08,09,04,38,13.60
2011,08,09,04,39,13.60
2011,08,09,04,40,13.60
2011,08,09,04,41,13.70
2011,08,09,04,42,13.70
2011,08,09,04,43,13.70
2011,08,09,04,44,13.70
2011,08,09,04,45,13.70
2011,08,09,04,46,13.70
2011,08,09,04,47,13.70
2011,08,09,04,48,13.70
2011,08,09,04,49,13.70
2011,08,09,04,50,13.70
2011,08,09,04,51,13.70
2011,08,09,04,52,13.70
2011,08,09,04,53,13.70
2011,08,09,04,54,13.70
2011,08,09,04,55,13.70
2011,08,09,04,56,13.70
2011,08,09,04,57,13.70
2011,08,09,04,58,13.70
2011,08,09,04,59,13.70
2011,08,09,05,00,13.70
2011,08,09,05,01,13.70
2011,08,09,05,02,13.70
2011,08,09,05,03,13.70
2011,08,09,05,04,13.70
2011,08,09,05,05,13.70
2011,08,09,05,06,13.70
2011,08,09,05,07,13.70
2011,08,09,05,08,13.70
2011,08,09,05,09,13.70
2011,08,09,05,10,13.70
2011,08,09,05,11,13.70
2011,08,09,05,12,13.70
2011,08,09,05,13,13.70
2011,08,09,05,14,13.70
2011,08,09,05,15,13.70
2011,08,09,05,16,13.70
2011,08,09,05,17,13.70
2011,08,09,05,18,13.70
2011,08,09,05,19,13.70
2011,08,09,05,20,13.70
2011,08,09,05,21,13.70
2011,08,09,05,22,13.70
2011,08,09,05,23,13.70
2011,08,09,05,24,13.70
2011,08,09,05,25,13.70
2011,08,09,05,26,13.70
2011,08,09,05,27,13.70
2011,08,09,05,28,13.70
2011,08,09,05,29,13.70
2011,08,09,05,30,13.70
2011,08,09,05,31,13.70
2011,08,09,05,32,13.70
2011,08,09,05,33,13.70
2011,08,09,05,34,13.70
2011,08,09,05,35,13.70
2011,08,09,05,36,13.70
2011,08,09,05,37,13.70
2011,08,09,05,38,13.70
2011,08,09,05,39,13.70
2011,08,09,05,40,13.70
2011,08,09,05,41,13.70
2011,08,09,05,42,13.70
2011,08,09,05,43,13.70
2011,08,09,05,44,13.70
2011,08,09,05,45,13.70
2011,08,09,05,46,13.70
2011,08,09,05,47,13.70
2011,08,09,05,48,13.70
2011,08,09,05,49,13.70
2011,08,09,05,50,13.70
2011,08,09,05,51,13.70
2011,08,09,05,52,13.70
2011,08,09,05,53,13.70
2011,08,09,05,54,13.70
2011,08,09,05,55,13.70
2011,08,09,05,56,13.70
2011,08,09,05,57,13.70
2011,08,09,05,58,13.70
2011,08,09,05,59,13.70
2011,08,09,06,00,13.70
2011,08,09,06,01,13.70
2011,08,09,06,02,13.70
2011,08,09,06,03,13.70
2011,08,09,06,04,13.70
2011,08,09,06,05,13.70
2011,08,09,06,06,13.70
2011,08,09,06,07,13.70
2011,08,09,06,08,13.70
2011,08,09,06,09,13.70
2011,08,09,06,10,13.70
2011,08,09,06,11,13.70
2011,08,09,06,12,13.70
2011,08,09,06,13,13.70
2011,08,09,06,14,13.70
2011,08,09,06,15,13.70
2011,08,09,06,16,13.70
2011,08,09,06,17,13.70
2011,08,09,06,18,13.70
2011,08,09,06,19,13.70
2011,08,09,06,20,13.70
2011,08,09,06,21,13.70
2011,08,09,06,22,13.70
2011,08,09,06,23,13.70
2011,08,09,06,24,13.70
2011,08,09,06,25,13.70
2011,08,09,06,26,13.70
2011,08,09,06,27,13.70
2011,08,09,06,28,13.70
2011,08,09,06,29,13.70
2011,08,09,06,30,13.70
2011,08,09,06,31,13.70
2011,08,09,06,32,13.70
2011,08,09,06,33,13.70
2011,08,09,06,34,13.70
2011,08,09,06,35,13.70
2011,08,09,06,36,13.70
2011,08,09,06,37,13.70
2011,08,09,06,38,13.70
2011,08,09,06,39,13.70
2011,08,09,06,40,13.70
2011,08,09,06,41,13.70
2011,08,09,06,42,13.70
2011,08,09,06,43,13.70
2011,08,09,06,44,13.70
2011,08,09,06,45,13.70
2011,08,09,06,46,13.70
2011,08,09,06,47,13.70
2011,08,09,06,48,13.70
2011,08,09,06,49,13.70
2011,08,09,06,50,13.70
2011,08,09,06,51,13.70
2011,08,09,06,52,13.70
2011,08,09,06,53,13.70
2011,08,09,06,54,13.70
2011,08,09,06,55,13.70
2011,08,09,06,56,13.70
2011,08,09,06,57,13.70
2011,08,09,06,58,13.70
2011,08,09,06,59,13.70
2011,08,09,07,00,13.70
2011,08,09,07,01,13.70
2011,08,09,07,02,13.70
2011,08,09,07,03,13.70
2011,08,09,07,04,13.70
2011,08,09,07,05,13.70
2011,08,09,07,06,13.70
2011,08,09,07,07,13.70
2011,08,09,07,08,13.70
2011,08,09,07,09,13.70
2011,08,09,07,10,13.70
2011,08,09,07,11,13.70
2011,08,09,07,12,13.70
2011,08,09,07,13,13.70
2011,08,09,07,14,13.70
2011,08,09,07,15,13.70
2011,08,09,07,16,13.70
2011,08,09,07,17,13.70
2011,08,09,07,18,13.70
2011,08,09,07,19,13.70
2011,08,09,07,20,13.70
2011,08,09,07,21,13.70
2011,08,09,07,22,13.70
2011,08,09,07,23,13.70
2011,08,09,07,24,13.70
2011,08,09,07,25,13.70
2011,08,09,07,26,13.70
2011,08,09,07,27,13.70
2011,08,09,07,28,13.70
2011,08,09,07,29,13.70
2011,08,09,07,30,13.70
2011,08,09,07,31,13.70
2011,08,09,07,32,13.70
2011,08,09,07,33,13.70
2011,08,09,07,34,13.70
2011,08,09,07,35,13.70
2011,08,09,07,36,13.70
2011,08,09,07,37,13.70
2011,08,09,07,38,13.70
2011,08,09,07,39,13.70
2011,08,09,07,40,13.70
2011,08,09,07,41,13.80
2011,08,09,07,42,13.80
2011,08,09,07,43,13.80
2011,08,09,07,44,13.80
2011,08,09,07,45,13.80
2011,08,09,07,46,13.80
2011,08,09,07,47,13.80
2011,08,09,07,48,13.80
2011,08,09,07,49,13.80
2011,08,09,07,50,13.80
2011,08,09,07,51,13.80
2011,08,09,07,52,13.80
2011,08,09,07,53,13.80
2011,08,09,07,54,13.80
2011,08,09,07,55,13.80
2011,08,09,07,56,13.80
2011,08,09,07,57,13.80
2011,08,09,07,58,13.80
2011,08,09,07,59,13.80
2011,08,09,08,00,13.80
2011,08,09,08,01,13.80
2011,08,09,08,02,13.80
2011,08,09,08,03,13.80
2011,08,09,08,04,13.80
2011,08,09,08,05,13.80
2011,08,09,08,06,13.80
2011,08,09,08,07,13.80
2011,08,09,08,08,13.80
2011,08,09,08,09,13.80
2011,08,09,08,10,13.70
2011,08,09,08,11,13.70
2011,08,09,08,12,13.70
2011,08,09,08,13,13.70
2011,08,09,08,14,13.70
2011,08,09,08,15,13.70
2011,08,09,08,16,13.70
2011,08,09,08,17,13.70
2011,08,09,08,18,13.70
2011,08,09,08,19,13.70
2011,08,09,08,20,13.70
2011,08,09,08,21,13.70
2011,08,09,08,22,13.70
2011,08,09,08,23,13.70
2011,08,09,08,24,13.70
2011,08,09,08,25,13.70
2011,08,09,08,26,13.70
2011,08,09,08,27,13.70
2011,08,09,08,28,13.70
2011,08,09,08,29,13.70
2011,08,09,08,30,13.70
2011,08,09,08,31,13.70
2011,08,09,08,32,13.70
2011,08,09,08,33,13.70
2011,08,09,08,34,13.80
2011,08,09,08,35,13.80
2011,08,09,08,36,13.80
2011,08,09,08,37,13.80
2011,08,09,08,38,13.80
2011,08,09,08,39,13.80
2011,08,09,08,40,13.80
2011,08,09,08,41,13.80
2011,08,09,08,42,13.80
2011,08,09,08,43,13.80
2011,08,09,08,44,13.80
2011,08,09,08,45,13.80
2011,08,09,08,46,13.80
2011,08,09,08,47,13.80
2011,08,09,08,48,13.80
2011,08,09,08,49,13.90
2011,08,09,08,50,13.90
2011,08,09,08,51,13.90
2011,08,09,08,52,13.90
2011,08,09,08,53,13.90
2011,08,09,08,54,13.90
2011,08,09,08,55,14.00
2011,08,09,08,56,14.00
2011,08,09,08,57,14.00
2011,08,09,08,58,14.00
2011,08,09,08,59,14.00
2011,08,09,09,00,14.10
2011,08,09,09,01,14.10
2011,08,09,09,02,14.10
2011,08,09,09,03,14.10
2011,08,09,09,04,14.10
2011,08,09,09,05,14.10
2011,08,09,09,06,14.10
2011,08,09,09,07,14.10
2011,08,09,09,08,14.10
2011,08,09,09,09,14.10
2011,08,09,09,10,14.10
2011,08,09,09,11,14.10
2011,08,09,09,12,14.10
2011,08,09,09,13,14.10
2011,08,09,09,14,14.10
2011,08,09,09,15,14.10
2011,08,09,09,16,14.10
2011,08,09,09,17,14.10
2011,08,09,09,18,14.10
2011,08,09,09,19,14.10
2011,08,09,09,20,14.10
2011,08,09,09,21,14.10
2011,08,09,09,22,14.10
2011,08,09,09,23,14.10
2011,08,09,09,24,14.20
2011,08,09,09,25,14.20
2011,08,09,09,26,14.20
2011,08,09,09,27,14.20
2011,08,09,09,28,14.20
2011,08,09,09,29,14.20
2011,08,09,09,30,14.20
2011,08,09,09,31,14.20
2011,08,09,09,32,14.20
2011,08,09,09,33,14.20
2011,08,09,09,34,14.20
2011,08,09,09,35,14.20
2011,08,09,09,36,14.20
2011,08,09,09,37,14.20
2011,08,09,09,38,14.20
2011,08,09,09,39,14.20
2011,08,09,09,40,14.20
2011,08,09,09,41,14.20
2011,08,09,09,42,14.20
2011,08,09,09,43,14.20
2011,08,09,09,44,14.30
2011,08,09,09,45,14.30
2011,08,09,09,46,14.30
2011,08,09,09,47,14.30
2011,08,09,09,48,14.30
2011,08,09,09,49,14.30
2011,08,09,09,50,14.30
2011,08,09,09,51,14.40
2011,08,09,09,52,14.40
2011,08,09,09,53,14.40
2011,08,09,09,54,14.40
2011,08,09,09,55,14.40
2011,08,09,09,56,14.40
2011,08,09,09,57,14.40
2011,08,09,09,58,14.40
2011,08,09,09,59,14.40
2011,08,09,10,00,14.40
2011,08,09,10,01,14.40
2011,08,09,10,02,14.40
2011,08,09,10,03,14.40
2011,08,09,10,04,14.40
2011,08,09,10,05,14.40
2011,08,09,10,06,14.40
2011,08,09,10,07,14.40
2011,08,09,10,08,14.40
2011,08,09,10,09,14.50
2011,08,09,10,10,14.40
2011,08,09,10,11,14.40
2011,08,09,10,12,14.40
2011,08,09,10,13,14.40
2011,08,09,10,14,14.50
2011,08,09,10,15,14.50
2011,08,09,10,16,14.50
2011,08,09,10,17,14.50
2011,08,09,10,18,14.60
2011,08,09,10,19,14.60
2011,08,09,10,20,14.60
2011,08,09,10,21,14.60
2011,08,09,10,22,14.70
2011,08,09,10,23,14.60
2011,08,09,10,24,14.60
2011,08,09,10,25,14.60
2011,08,09,10,26,14.60
2011,08,09,10,27,14.60
2011,08,09,10,28,14.70
2011,08,09,10,29,14.70
2011,08,09,10,30,14.70
2011,08,09,10,31,14.70
2011,08,09,10,32,14.70
2011,08,09,10,33,14.70
2011,08,09,10,34,14.70
2011,08,09,10,35,14.70
2011,08,09,10,36,14.70
2011,08,09,10,37,14.80
2011,08,09,10,38,14.80
2011,08,09,10,39,14.80
2011,08,09,10,40,14.80
2011,08,09,10,41,14.80
2011,08,09,10,42,14.80
2011,08,09,10,43,14.80
2011,08,09,10,44,14.90
2011,08,09,10,45,14.90
2011,08,09,10,46,14.90
2011,08,09,10,47,14.90
2011,08,09,10,48,15.00
2011,08,09,10,49,15.00
2011,08,09,10,50,15.00
2011,08,09,10,51,15.10
2011,08,09,10,52,15.10
2011,08,09,10,53,15.10
2011,08,09,10,54,15.10
2011,08,09,10,55,15.10
2011,08,09,10,56,15.10
2011,08,09,10,57,15.10
2011,08,09,10,58,15.10
2011,08,09,10,59,15.10
2011,08,09,11,00,15.20
2011,08,09,11,01,15.20
2011,08,09,11,02,15.20
2011,08,09,11,03,15.30
2011,08,09,11,04,15.30
2011,08,09,11,05,15.30
2011,08,09,11,06,15.40
2011,08,09,11,07,15.50
2011,08,09,11,08,15.50
2011,08,09,11,09,15.60
2011,08,09,11,10,15.60
2011,08,09,11,11,15.60
2011,08,09,11,12,15.70
2011,08,09,11,13,15.70
2011,08,09,11,14,15.70
2011,08,09,11,15,15.70
2011,08,09,11,16,15.70
2011,08,09,11,17,15.80
2011,08,09,11,18,15.80
2011,08,09,11,19,15.80
2011,08,09,11,20,15.90
2011,08,09,11,21,15.80
2011,08,09,11,22,15.80
2011,08,09,11,23,15.80
2011,08,09,11,24,15.80
2011,08,09,11,25,15.80
2011,08,09,11,26,15.80
2011,08,09,11,27,15.90
2011,08,09,11,28,15.90
2011,08,09,11,29,16.00
2011,08,09,11,30,16.00
2011,08,09,11,31,16.00
2011,08,09,11,32,16.10
2011,08,09,11,33,16.10
2011,08,09,11,34,16.10
2011,08,09,11,35,16.10
2011,08,09,11,36,16.20
2011,08,09,11,37,16.20
2011,08,09,11,38,16.20
2011,08,09,11,39,16.20
2011,08,09,11,40,16.30
2011,08,09,11,41,16.30
2011,08,09,11,42,16.30
2011,08,09,11,43,16.30
2011,08,09,11,44,16.40
2011,08,09,11,45,16.40
2011,08,09,11,46,16.50
2011,08,09,11,47,16.50
2011,08,09,11,48,16.60
2011,08,09,11,49,16.60
2011,08,09,11,50,16.70
2011,08,09,11,51,16.70
2011,08,09,11,52,16.80
2011,08,09,11,53,16.80
2011,08,09,11,54,16.80
2011,08,09,11,55,16.80
2011,08,09,11,56,16.80
2011,08,09,11,57,16.80
2011,08,09,11,58,16.70
2011,08,09,11,59,16.70
2011,08,09,12,00,16.70
2011,08,09,12,01,16.70
2011,08,09,12,02,16.60
2011,08,09,12,03,16.60
2011,08,09,12,04,16.60
2011,08,09,12,05,16.70
2011,08,09,12,06,16.70
2011,08,09,12,07,16.70
2011,08,09,12,08,16.70
2011,08,09,12,09,16.70
2011,08,09,12,10,16.70
2011,08,09,12,11,16.70
2011,08,09,12,12,16.70
2011,08,09,12,13,16.70
2011,08,09,12,14,16.70
2011,08,09,12,15,16.80
2011,08,09,12,16,16.80
2011,08,09,12,17,16.90
2011,08,09,12,18,16.90
2011,08,09,12,19,16.90
2011,08,09,12,20,16.90
2011,08,09,12,21,16.90
2011,08,09,12,22,16.90
2011,08,09,12,23,17.00
2011,08,09,12,24,17.10
2011,08,09,12,25,17.10
2011,08,09,12,26,17.10
2011,08,09,12,27,17.10
2011,08,09,12,28,17.10
2011,08,09,12,29,17.10
2011,08,09,12,30,17.10
2011,08,09,12,31,17.20
2011,08,09,12,32,17.20
2011,08,09,12,33,17.20
2011,08,09,12,34,17.30
2011,08,09,12,35,17.30
2011,08,09,12,36,17.30
2011,08,09,12,37,17.30
2011,08,09,12,38,17.30
2011,08,09,12,39,17.40
2011,08,09,12,40,17.40
2011,08,09,12,41,17.50
2011,08,09,12,42,17.50
2011,08,09,12,43,17.60
2011,08,09,12,44,17.70
2011,08,09,12,45,17.80
2011,08,09,12,46,17.80
2011,08,09,12,47,17.90
2011,08,09,12,48,18.00
2011,08,09,12,49,18.10
2011,08,09,12,50,18.10
2011,08,09,12,51,18.10
2011,08,09,12,52,18.20
2011,08,09,12,53,18.30
2011,08,09,12,54,18.40
2011,08,09,12,55,18.40
2011,08,09,12,56,18.50
2011,08,09,12,57,18.50
2011,08,09,12,58,18.50
2011,08,09,12,59,18.40
2011,08,09,13,00,18.40
2011,08,09,13,01,18.30
2011,08,09,13,02,18.40
2011,08,09,13,03,18.40
2011,08,09,13,04,18.50
2011,08,09,13,05,18.60
2011,08,09,13,06,18.60
2011,08,09,13,07,18.60
2011,08,09,13,08,18.60
2011,08,09,13,09,18.60
2011,08,09,13,10,18.60
2011,08,09,13,11,18.60
2011,08,09,13,12,18.60
2011,08,09,13,13,18.60
2011,08,09,13,14,18.70
2011,08,09,13,15,18.60
2011,08,09,13,16,18.60
2011,08,09,13,17,18.60
2011,08,09,13,18,18.60
2011,08,09,13,19,18.70
2011,08,09,13,20,18.70
2011,08,09,13,21,18.70
2011,08,09,13,22,18.70
2011,08,09,13,23,18.70
2011,08,09,13,24,18.70
2011,08,09,13,25,18.70
2011,08,09,13,26,18.80
2011,08,09,13,27,18.80
2011,08,09,13,28,18.90
2011,08,09,13,29,19.00
2011,08,09,13,30,19.10
2011,08,09,13,31,19.20
2011,08,09,13,32,19.20
2011,08,09,13,33,19.20
2011,08,09,13,34,19.30
2011,08,09,13,35,19.30
2011,08,09,13,36,19.40
2011,08,09,13,37,19.50
2011,08,09,13,38,19.70
2011,08,09,13,39,19.80
2011,08,09,13,40,19.80
2011,08,09,13,41,19.70
2011,08,09,13,42,19.60
2011,08,09,13,43,19.60
2011,08,09,13,44,19.70
2011,08,09,13,45,19.70
2011,08,09,13,46,19.70
2011,08,09,13,47,19.60
2011,08,09,13,48,19.60
2011,08,09,13,49,19.70
2011,08,09,13,50,19.80
2011,08,09,13,51,19.90
2011,08,09,13,52,19.90
2011,08,09,13,53,20.00
2011,08,09,13,54,20.10
2011,08,09,13,55,20.10
2011,08,09,13,56,20.10
2011,08,09,13,57,20.10
2011,08,09,13,58,20.00
2011,08,09,13,59,19.80
2011,08,09,14,00,19.80
2011,08,09,14,01,19.60
2011,08,09,14,02,19.60
2011,08,09,14,03,19.60
2011,08,09,14,04,19.70
2011,08,09,14,05,19.60
2011,08,09,14,06,19.60
2011,08,09,14,07,19.60
2011,08,09,14,08,19.50
2011,08,09,14,09,19.50
2011,08,09,14,10,19.60
2011,08,09,14,11,19.60
2011,08,09,14,12,19.70
2011,08,09,14,13,19.70
2011,08,09,14,14,19.80
2011,08,09,14,15,19.90
2011,08,09,14,16,20.00
2011,08,09,14,17,20.10
2011,08,09,14,18,20.30
2011,08,09,14,19,20.50
2011,08,09,14,20,20.60
2011,08,09,14,21,20.40
2011,08,09,14,22,20.20
2011,08,09,14,23,20.00
2011,08,09,14,24,19.90
2011,08,09,14,25,19.90
2011,08,09,14,26,19.80
2011,08,09,14,27,19.80
2011,08,09,14,28,19.80
2011,08,09,14,29,19.80
2011,08,09,14,30,19.90
2011,08,09,14,31,20.00
2011,08,09,14,32,20.10
2011,08,09,14,33,20.10
2011,08,09,14,34,20.10
2011,08,09,14,35,20.00
2011,08,09,14,36,19.90
2011,08,09,14,37,19.80
2011,08,09,14,38,19.80
2011,08,09,14,39,19.70
2011,08,09,14,40,19.80
2011,08,09,14,41,19.80
2011,08,09,14,42,19.90
2011,08,09,14,43,19.90
2011,08,09,14,44,20.00
2011,08,09,14,45,20.10
2011,08,09,14,46,20.20
2011,08,09,14,47,20.20
2011,08,09,14,48,20.10
2011,08,09,14,49,19.90
2011,08,09,14,50,19.80
2011,08,09,14,51,19.70
2011,08,09,14,52,19.50
2011,08,09,14,53,19.50
2011,08,09,14,54,19.40
2011,08,09,14,55,19.40
2011,08,09,14,56,19.40
2011,08,09,14,57,19.40
2011,08,09,14,58,19.50
2011,08,09,14,59,19.60
2011,08,09,15,00,19.60
2011,08,09,15,01,19.70
2011,08,09,15,02,19.80
2011,08,09,15,03,19.90
2011,08,09,15,04,20.00
2011,08,09,15,05,20.10
2011,08,09,15,06,20.20
2011,08,09,15,07,20.40
2011,08,09,15,08,20.40
2011,08,09,15,09,20.40
2011,08,09,15,10,20.40
2011,08,09,15,11,20.40
2011,08,09,15,12,20.40
2011,08,09,15,13,20.40
2011,08,09,15,14,20.40
2011,08,09,15,15,20.40
2011,08,09,15,16,20.40
2011,08,09,15,17,20.50
2011,08,09,15,18,20.60
2011,08,09,15,19,20.60
2011,08,09,15,20,20.60
2011,08,09,15,21,20.60
2011,08,09,15,22,20.50
2011,08,09,15,23,20.40
2011,08,09,15,24,20.40
2011,08,09,15,25,20.40
2011,08,09,15,26,20.40
2011,08,09,15,27,20.50
2011,08,09,15,28,20.60
2011,08,09,15,29,20.60
2011,08,09,15,30,20.70
2011,08,09,15,31,20.70
2011,08,09,15,32,20.70
2011,08,09,15,33,20.80
2011,08,09,15,34,20.80
2011,08,09,15,35,20.80
2011,08,09,15,36,20.70
2011,08,09,15,37,20.70
2011,08,09,15,38,20.70
2011,08,09,15,39,20.60
2011,08,09,15,40,20.60
2011,08,09,15,41,20.70
2011,08,09,15,42,20.80
2011,08,09,15,43,20.80
2011,08,09,15,44,20.70
2011,08,09,15,45,20.70
2011,08,09,15,46,20.60
2011,08,09,15,47,20.60
2011,08,09,15,48,20.60
2011,08,09,15,49,20.70
2011,08,09,15,50,20.70
2011,08,09,15,51,20.60
2011,08,09,15,52,20.60
2011,08,09,15,53,20.60
2011,08,09,15,54,20.60
2011,08,09,15,55,20.60
2011,08,09,15,56,20.70
2011,08,09,15,57,20.70
2011,08,09,15,58,20.80
2011,08,09,15,59,20.80
2011,08,09,16,00,20.90
2011,08,09,16,01,20.90
2011,08,09,16,02,20.90
2011,08,09,16,03,20.90
2011,08,09,16,04,20.80
2011,08,09,16,05,20.80
2011,08,09,16,06,20.80
2011,08,09,16,07,20.80
2011,08,09,16,08,20.70
2011,08,09,16,09,20.70
2011,08,09,16,10,20.70
2011,08,09,16,11,20.60
2011,08,09,16,12,20.60
2011,08,09,16,13,20.60
2011,08,09,16,14,20.60
2011,08,09,16,15,20.60
2011,08,09,16,16,20.60
2011,08,09,16,17,20.70
2011,08,09,16,18,20.70
2011,08,09,16,19,20.70
2011,08,09,16,20,20.60
2011,08,09,16,21,20.60
2011,08,09,16,22,20.60
2011,08,09,16,23,20.60
2011,08,09,16,24,20.50
2011,08,09,16,25,20.50
2011,08,09,16,26,20.40
2011,08,09,16,27,20.40
2011,08,09,16,28,20.40
2011,08,09,16,29,20.40
2011,08,09,16,30,20.30
2011,08,09,16,31,20.20
2011,08,09,16,32,20.20
2011,08,09,16,33,20.20
2011,08,09,16,34,20.20
2011,08,09,16,35,20.20
2011,08,09,16,36,20.20
2011,08,09,16,37,20.30
2011,08,09,16,38,20.30
2011,08,09,16,39,20.30
2011,08,09,16,40,20.10
2011,08,09,16,41,20.10
2011,08,09,16,42,20.00
2011,08,09,16,43,19.90
2011,08,09,16,44,19.90
2011,08,09,16,45,20.00
2011,08,09,16,46,19.90
2011,08,09,16,47,19.80
2011,08,09,16,48,19.80
2011,08,09,16,49,19.80
2011,08,09,16,50,19.70
2011,08,09,16,51,19.70
2011,08,09,16,52,19.70
2011,08,09,16,53,19.70
2011,08,09,16,54,19.70
2011,08,09,16,55,19.70
2011,08,09,16,56,19.60
2011,08,09,16,57,19.50
2011,08,09,16,58,19.50
2011,08,09,16,59,19.50
2011,08,09,17,00,19.60
2011,08,09,17,01,19.70
2011,08,09,17,02,19.80
2011,08,09,17,03,19.80
2011,08,09,17,04,19.90
2011,08,09,17,05,19.90
2011,08,09,17,06,19.90
2011,08,09,17,07,19.90
2011,08,09,17,08,19.80
2011,08,09,17,09,19.80
2011,08,09,17,10,19.60
2011,08,09,17,11,19.60
2011,08,09,17,12,19.50
2011,08,09,17,13,19.50
2011,08,09,17,14,19.50
2011,08,09,17,15,19.50
2011,08,09,17,16,19.40
2011,08,09,17,17,19.40
2011,08,09,17,18,19.30
2011,08,09,17,19,19.20